DELTA 1 DEB, 48088

Orbit data source: Space-Track

DELTA 1 DEB, 48088 is space debris in SSO originally from a launch on Thu, 29 Jul 1976 UTC launched from the Air Force Western Test Range (AFWTR). Debris objects in space refer to the collection of defunct objects orbiting the Earth. Examples of debris include non-operational satellites, rocket bodies, and fragments generated from explosions, collisions, or faulty payload assembly.

Loading next visibility...
Identifier
48088, 1976-077GT
Orbit
SSO
Country
Flag of USUS
Related business
Manufacturer
Unknown
Mission
Spacecraft
Bus & Motor
Unknown
Mass
Unknown
Launch date (UTC)
1976-07-29 (50 years ago)
Launch vehicle
Unknown
Launch site
Air Force Western Test Range (AFWTR)
Object type
Payload
Rocket body
Debris
Shape & HBR
Unknown shape, 0.1 m
Radar Cross Section
Small (<0.1 m²)

Expand to show TLE details & history
Last TLE update: 3 days ago

TLE from 3 days ago
0 DELTA 1 DEB
1 48088U 76077GT  26252.81416877 -.00000020  00000-0  21091-3 0  9993
2 48088 102.0536 280.2655 0115437 195.4125 341.3015 12.19251201569813
Epoch: 2026-09-09T19:32Z
TLE epoch observation values (Epoch: 2026-09-09T19:32:24.181Z)
Latitude
3.55029°
Longitude
179.0593°
Altitude
1,510.841 km
Speed
7.148 km/s
True Right ascension
06h 44m 05s
True Declination
3° 31' 52"
Sunlit
Object was in daylight at epoch
Visualization orbit readout
Latitude
Unknown
Longitude
Unknown
Altitude
Unknown
Speed
Unknown
Apparent Right ascension
Unknown
Apparent Declination
Unknown
Sunlit
N/A
Visualization observer readout
Local Sidereal Time
17:33:49
Azimuth
Unknown
Elevation
Unknown
Doppler factor
Unknown
Orbital elements
Apogee altitude
1,685.43 km
Perigee altitude
1,501.388 km
Semi-major axis
7,971.546 km
Eccentricity
0.01154
Inclination
102.0536°
RAAN
280.2655°
Arg. of periapsis
195.4125°
True anomaly
340.87155°
Mean anomaly
341.3015°
Eccentric anomaly
341.08712°
Mean motion
3.0495 °/min
Orbital period
118.05 mins
BSTAR
0.00021091
Loading maneuver chart data...
Computing Atmospheric mass density...
Loading historical data...
Loading historical data...
Loading historical data...
Loading historical data...
Loading historical data...
Loading historical data...
Loading historical data...

Documentation

Showing up to 5 results
|